Blue Canyon, CA

4:46 AM PDT on April 27, 2017 (GMT -0700)
Blue Canyon-Nyack

Weather History for KBLU - October, 2011

Change the Weather History Date:

Saturday, October 22, 2011

  Actual Average Record
Temperature  
Mean Temperature 66 °F -  
Max Temperature 75 °F 59 °F 78 °F (1959)
Min Temperature 60 °F 43 °F 30 °F (1961)
Cooling Degree Days 2    
Growing Degree Days 16 (Base 50)    
Moisture  
Dew Point 30 °F    
Average Humidity 28    
Maximum Humidity 52    
Minimum Humidity 18    
Precipitation  
Precipitation 0.00 in - - ()
Sea Level Pressure  
Sea Level Pressure 30.05 in    
Wind  
Wind Speed 5 mph (NE)    
Max Wind Speed 8 mph    
Max Gust Speed -    
Visibility 10 miles    
Events      
Averages and records for this station are not official NWS values.
T = Trace of Precipitation, MM = Missing Value Source: NWS Daily Summary

Daily Weather History Graph

Daily Weather History Graph

Search for Another Location

Airport or City:

Trip Planner

Search our weather history database for the weather conditions in past years. The results will help you decide how hot, cold, wet, or windy it might be!

Date:

Astronomy

Oct. 22, 2011 Rise Set
Actual Time 7:19 AM PDT 6:14 PM PDT
Civil Twilight 6:52 AM PDT 6:41 PM PDT
Nautical Twilight 6:21 AM PDT 7:12 PM PDT
Astronomical Twilight 5:50 AM PDT 7:43 PM PDT
Moon 2:24 AM PDT (10/22) 3:33 PM PDT (10/22)
Length of Visible Light 11h 49m
Length of Day
10h 54m
Waning Crescent, 22% of the Moon is Illuminated
Oct 22
Waning Crescent
Oct 26
New
Nov 2
First Quarter
Nov 10
Full
Nov 18
Last Quarter

Hourly Weather History & Observations

Time (PDT) Temp. Dew Point Humidity Pressure Visibility Wind Dir Wind Speed Gust Speed Precip Events Conditions
12:52 AM 60.1 °F 24.1 °F 25% 30.09 in 10.0 mi NE 6.9 mph - N/A   Clear
1:52 AM 61.0 °F 24.1 °F 24% 30.08 in 10.0 mi NE 8.1 mph - N/A   Clear
2:52 AM 61.0 °F 23.0 °F 23% 30.06 in 10.0 mi NE 5.8 mph - N/A   Clear
3:52 AM 62.1 °F 21.0 °F 21% 30.06 in 10.0 mi NE 4.6 mph - N/A   Clear
4:52 AM 60.1 °F 21.9 °F 23% 30.07 in 10.0 mi NE 5.8 mph - N/A   Clear
5:52 AM 62.1 °F 19.9 °F 20% 30.08 in 10.0 mi NE 4.6 mph - N/A   Clear
6:52 AM 62.1 °F 19.9 °F 20% 30.09 in 10.0 mi NE 6.9 mph - N/A   Clear
7:52 AM 62.1 °F 21.0 °F 21% 30.09 in 10.0 mi ENE 5.8 mph - N/A   Clear
8:52 AM 63.0 °F 26.1 °F 25% 30.10 in 10.0 mi NE 5.8 mph - N/A   Clear
9:52 AM 66.9 °F 28.0 °F 23% 30.09 in 10.0 mi Variable 4.6 mph - N/A   Clear
10:52 AM 71.1 °F 30.9 °F 23% 30.08 in 10.0 mi East 3.5 mph - N/A   Clear
11:52 AM 73.0 °F 33.1 °F 23% 30.06 in 10.0 mi South 3.5 mph - N/A   Clear
12:52 PM 70.0 °F 37.0 °F 30% 30.07 in 10.0 mi West 3.5 mph - N/A   Clear
1:52 PM 70.0 °F 44.1 °F 39% 30.04 in 10.0 mi West 5.8 mph - N/A   Clear
2:52 PM 71.1 °F 46.0 °F 41% 30.03 in 5.0 mi WNW 4.6 mph - N/A   Haze
3:52 PM 70.0 °F 48.9 °F 47% 30.01 in 10.0 mi West 3.5 mph - N/A   Clear
4:52 PM 68.0 °F 48.0 °F 49% 30.03 in 10.0 mi West 3.5 mph - N/A   Clear
5:52 PM 66.9 °F 48.9 °F 52% 30.01 in 10.0 mi Calm Calm - N/A   Clear
6:52 PM 66.0 °F 37.0 °F 34% 30.01 in 10.0 mi NE 5.8 mph - N/A   Clear
7:52 PM 66.0 °F 28.9 °F 25% 30.01 in 10.0 mi NE 6.9 mph - N/A   Clear
8:52 PM 64.9 °F 27.0 °F 24% 30.01 in 10.0 mi ENE 3.5 mph - N/A   Clear
9:52 PM 64.0 °F 25.0 °F 23% 30.00 in 10.0 mi ENE 3.5 mph - N/A   Clear
10:52 PM 64.0 °F 27.0 °F 25% 29.99 in 10.0 mi Calm Calm - N/A   Clear
11:52 PM 64.0 °F 19.9 °F 18% 29.96 in 10.0 mi NNE 3.5 mph - N/A   Clear